FW2389 Weather Reports


Display with metric or nautical units.
time (UTC)temp
F
wind
direction
speed
MPH
gust
MPH
rain 1hr
in
rain 24hr
in
rain mn
in
humidity
%
barometer
mb
20260506182533 58 257 22.0 30.0 0.00 0.00 0.00 88 1011.8
20260506182033 58 260 20.0 32.0 0.00 0.00 0.00 88 1011.8
20260506181536 58 257 20.0 34.0 0.00 0.00 0.00 88 1011.9
20260506181032 58 257 22.0 34.0 0.00 0.00 0.00 87 1012.1
20260506180532 58 262 21.0 36.0 0.00 0.00 0.00 87 1012.1
20260506180038 59 255 22.0 41.0 0.00 0.00 0.00 86 1012.3
20260506175530 59 266 30.0 41.0 0.00 0.00 0.00 84 1012.3
20260506175028 59 259 25.0 37.0 0.00 0.00 0.00 84 1012.4
20260506174530 60 274 28.0 37.0 0.00 0.00 0.00 83 1012.5
20260506174028 60 245 27.0 37.0 0.00 0.00 0.00 83 1012.3
20260506173529 60 257 25.0 34.0 0.00 0.00 0.00 83 1012.5
20260506173028 60 248 23.0 32.0 0.00 0.00 0.00 82 1012.4
20260506172527 61 269 21.0 28.0 0.00 0.00 0.00 82 1012.5
20260506172030 61 250 18.0 28.0 0.00 0.00 0.00 82 1012.7
20260506171543 61 271 16.0 29.0 0.00 0.00 0.00 82 1012.7
20260506171026 61 254 23.0 33.0 0.00 0.00 0.00 82 1012.6
20260506170525 61 259 25.0 35.0 0.00 0.00 0.00 82 1012.8
20260506170025 61 245 23.0 37.0 0.00 0.00 0.00 82 1012.8
20260506165525 61 260 24.0 37.0 0.00 0.00 0.00 82 1012.7
20260506165025 61 245 20.0 35.0 0.00 0.00 0.00 82 1012.9
20260506164524 61 248 26.0 35.0 0.00 0.00 0.00 82 1012.9
20260506164024 61 259 27.0 39.0 0.00 0.00 0.00 81 1012.7
20260506163524 61 248 27.0 39.0 0.00 0.00 0.00 81 1012.7
20260506163028 61 248 23.0 38.0 0.00 0.00 0.00 82 1012.7
20260506162524 61 253 28.0 41.0 0.00 0.00 0.00 82 1012.8
20260506162023 61 252 32.0 41.0 0.00 0.00 0.00 81 1012.7
20260506161535 61 249 27.0 37.0 0.00 0.00 0.00 81 1013.0
20260506161022 61 271 27.0 37.0 0.00 0.00 0.00 81 1013.2
20260506160524 61 248 28.0 42.0 0.00 0.00 0.00 81 1013.3
20260506160020 61 250 30.0 42.0 0.00 0.00 0.00 82 1013.2
20260506155520 61 240 25.0 37.0 0.00 0.00 0.00 82 1013.4
20260506155020 61 262 26.0 37.0 0.00 0.00 0.00 82 1013.3
20260506154520 60 249 30.0 37.0 0.00 0.00 0.00 82 1013.3
20260506154020 60 256 28.0 37.0 0.00 0.00 0.00 82 1013.4
20260506153520 60 259 29.0 36.0 0.00 0.00 0.00 82 1013.4
20260506153020 60 248 27.0 39.0 0.00 0.00 0.00 82 1013.3
20260506152519 60 242 30.0 40.0 0.00 0.00 0.00 83 1013.2
20260506152019 60 251 30.0 40.0 0.00 0.00 0.00 82 1013.3
20260506151519 61 246 26.0 39.0 0.00 0.00 0.00 82 1013.6
20260506151018 61 265 30.0 39.0 0.00 0.00 0.00 81 1013.6
20260506150518 61 260 29.0 37.0 0.00 0.00 0.00 82 1013.4
20260506150023 61 236 28.0 40.0 0.00 0.00 0.00 82 1013.5
20260506145517 60 268 29.0 40.0 0.00 0.00 0.00 82 1013.5
20260506145017 60 245 29.0 37.0 0.00 0.00 0.00 83 1013.4
20260506144516 60 259 26.0 38.0 0.00 0.00 0.00 83 1013.6
20260506144016 59 256 27.0 38.0 0.00 0.00 0.00 84 1013.5
20260506143516 60 251 26.0 36.0 0.00 0.00 0.00 83 1013.7
20260506143016 60 252 25.0 37.0 0.00 0.00 0.00 83 1013.8
20260506142516 60 252 24.0 37.0 0.00 0.00 0.00 83 1013.9
20260506142015 60 255 26.0 37.0 0.00 0.00 0.00 83 1013.7
20260506141515 60 249 25.0 37.0 0.00 0.00 0.00 83 1013.7
20260506141015 60 252 25.0 41.0 0.00 0.00 0.00 83 1013.7
20260506140515 60 258 25.0 41.0 0.00 0.00 0.00 83 1013.5
20260506140016 60 262 28.0 41.0 0.00 0.00 0.00 83 1013.6
20260506135514 60 259 27.0 41.0 0.00 0.00 0.00 83 1013.6
20260506135024 60 265 25.0 37.0 0.00 0.00 0.00 83 1013.6
20260506134526 60 244 27.0 37.0 0.00 0.00 0.00 82 1013.4
20260506134013 60 240 23.0 37.0 0.00 0.00 0.00 82 1013.7
20260506133511 60 252 24.0 34.0 0.00 0.00 0.00 83 1013.5
20260506133012 59 237 25.0 34.0 0.00 0.00 0.00 84 1013.6
20260506132510 59 256 26.0 33.0 0.00 0.00 0.00 85 1013.4
20260506132010 59 266 26.0 33.0 0.00 0.00 0.00 84 1013.5
20260506131510 59 243 22.0 35.0 0.00 0.00 0.00 84 1013.6
20260506131010 59 248 21.0 38.0 0.00 0.00 0.00 84 1013.9
20260506130509 59 261 24.0 38.0 0.00 0.00 0.00 84 1013.9
20260506130010 59 252 23.0 33.0 0.00 0.00 0.00 84 1014.0
20260506125509 59 238 20.0 33.0 0.00 0.00 0.00 85 1014.0
20260506125008 59 255 25.0 35.0 0.00 0.00 0.00 84 1014.0
20260506124513 59 252 27.0 36.0 0.00 0.00 0.00 84 1013.9
20260506124008 59 247 25.0 36.0 0.00 0.00 0.00 85 1013.9
20260506123508 59 245 24.0 36.0 0.00 0.00 0.00 85 1013.9
20260506123007 59 258 28.0 36.0 0.00 0.00 0.00 85 1014.0
20260506122508 59 250 26.0 37.0 0.00 0.00 0.00 85 1013.8
20260506122007 59 255 27.0 37.0 0.00 0.00 0.00 85 1013.7
20260506121509 58 260 23.0 37.0 0.00 0.00 0.00 86 1013.9
20260506121006 58 244 23.0 35.0 0.00 0.00 0.00 86 1013.9
20260506120505 58 255 24.0 34.0 0.00 0.00 0.00 86 1013.9
20260506120010 58 250 26.0 34.0 0.00 0.00 0.00 86 1013.9
20260506115505 58 256 23.0 36.0 0.00 0.00 0.00 86 1013.9
20260506115004 58 250 27.0 36.0 0.00 0.00 0.00 87 1013.9
20260506114508 58 256 27.0 34.0 0.00 0.00 0.00 86 1013.9
20260506114005 58 246 22.0 30.0 0.00 0.00 0.00 87 1014.0
20260506113505 58 254 24.0 33.0 0.00 0.00 0.00 87 1013.8
20260506113006 58 252 22.0 33.0 0.00 0.00 0.00 87 1014.0
20260506112505 58 246 22.0 32.0 0.00 0.00 0.00 87 1014.0
20260506112004 58 245 25.0 32.0 0.00 0.00 0.00 87 1013.9
20260506111504 57 248 25.0 34.0 0.00 0.00 0.00 87 1013.9
20260506111004 57 247 28.0 35.0 0.00 0.00 0.00 88 1013.9
20260506110504 57 254 26.0 35.0 0.00 0.00 0.00 88 1014.0
20260506110009 57 267 23.0 34.0 0.00 0.00 0.00 88 1014.0
20260506105503 57 256 27.0 34.0 0.00 0.00 0.00 88 1013.9
20260506105003 57 261 26.0 33.0 0.00 0.00 0.00 88 1014.0
20260506104503 57 248 21.0 36.0 0.00 0.00 0.00 88 1014.0
20260506104002 57 244 26.0 36.0 0.00 0.00 0.00 88 1013.9
20260506103502 57 253 25.0 35.0 0.00 0.00 0.00 88 1013.8
20260506103007 57 263 27.0 36.0 0.00 0.00 0.00 88 1013.9
20260506102502 57 253 29.0 36.0 0.00 0.00 0.00 88 1013.8
20260506102101 57 247 27.0 35.0 0.00 0.00 0.00 88 1013.7
20260506101600 57 255 27.0 35.0 0.00 0.00 0.00 88 1013.6
20260506101059 57 248 25.0 35.0 0.00 0.00 0.00 88 1013.7
20260506100558 57 239 26.0 33.0 0.00 0.00 0.00 89 1013.5
20260506100104 57 249 26.0 32.0 0.00 0.00 0.00 89 1013.7
20260506095558 57 253 23.0 31.0 0.00 0.00 0.00 89 1013.6
20260506095058 57 241 23.0 35.0 0.00 0.00 0.00 89 1013.6
20260506094557 57 258 23.0 35.0 0.00 0.00 0.00 89 1013.6
20260506094057 57 259 26.0 34.0 0.00 0.00 0.00 89 1013.6
20260506093559 57 246 25.0 36.0 0.00 0.00 0.00 88 1013.7
20260506093058 57 240 28.0 36.0 0.00 0.00 0.00 89 1013.8
20260506092552 57 250 23.0 33.0 0.00 0.00 0.00 88 1013.7
20260506092053 57 264 24.0 35.0 0.00 0.00 0.00 89 1013.3
20260506091551 57 255 25.0 36.0 0.00 0.00 0.00 88 1013.4
20260506091051 57 242 28.0 36.0 0.00 0.00 0.00 88 1013.5
20260506090551 57 242 28.0 36.0 0.00 0.00 0.00 88 1013.5
20260506090050 57 248 25.0 34.0 0.00 0.00 0.00 89 1013.7
20260506085548 57 250 24.0 34.0 0.00 0.00 0.00 89 1013.9
20260506085048 57 249 24.0 34.0 0.00 0.00 0.00 89 1013.9
20260506084548 57 252 22.0 32.0 0.00 0.00 0.00 89 1013.9
20260506084049 57 253 24.0 34.0 0.00 0.00 0.00 89 1014.0
20260506083547 57 252 26.0 34.0 0.00 0.00 0.00 89 1014.0
20260506083107 57 241 20.0 32.0 0.00 0.00 0.00 89 1014.0
20260506082546 57 242 24.0 34.0 0.00 0.00 0.00 89 1014.0
20260506082048 57 253 26.0 34.0 0.00 0.00 0.00 88 1013.7
20260506081549 57 246 26.0 35.0 0.00 0.00 0.00 88 1013.7
20260506081045 57 258 25.0 37.0 0.00 0.00 0.00 88 1013.9
20260506080545 58 258 28.0 37.0 0.00 0.00 0.00 88 1013.9
20260506073043 58 258 27.0 38.0 0.00 0.00 0.00 86 1014.1
20260506072540 58 252 25.0 37.0 0.00 0.00 0.00 86 1014.1
20260506072040 58 252 26.0 36.0 0.00 0.00 0.00 86 1014.0
20260506071540 58 251 28.0 40.0 0.00 0.00 0.00 86 1014.0
20260506071039 58 276 27.0 40.0 0.00 0.00 0.00 86 1013.9
20260506070539 58 249 28.0 37.0 0.00 0.00 0.00 86 1014.0
20260506062035 58 242 28.0 36.0 0.00 0.00 0.00 86 1014.0
20260506061539 58 252 26.0 36.0 0.00 0.00 0.00 86 1014.0
20260506061035 58 248 29.0 39.0 0.00 0.00 0.00 86 1014.0
20260506060532 58 255 26.0 41.0 0.00 0.00 0.00 86 1014.0
20260506051027 58 245 27.0 39.0 0.00 0.00 0.00 85 1014.3
20260506050527 58 245 28.0 38.0 0.00 0.00 0.00 85 1014.3
20260506045024 58 253 28.0 39.0 0.00 0.00 0.00 85 1014.4
20260506044523 58 255 25.0 38.0 0.00 0.00 0.00 85 1014.4
20260506044027 59 248 30.0 38.0 0.00 0.00 0.00 85 1014.3
20260506043520 59 243 25.0 38.0 0.00 0.00 0.00 84 1014.5
20260506043020 59 250 28.0 40.0 0.00 0.00 0.00 84 1014.5
20260506042520 59 240 32.0 40.0 0.00 0.00 0.00 84 1014.4
20260506042019 59 247 28.0 38.0 0.00 0.00 0.00 84 1014.4
20260506041518 59 251 27.0 38.0 0.00 0.00 0.00 84 1014.3
20260506041017 59 248 27.0 42.0 0.00 0.00 0.00 84 1014.4
20260506040519 59 247 26.0 42.0 0.00 0.00 0.00 83 1014.4
20260506040018 59 250 29.0 38.0 0.00 0.00 0.00 83 1014.5
20260506035514 59 264 26.0 35.0 0.00 0.00 0.00 83 1014.5
20260506035014 59 249 26.0 39.0 0.00 0.00 0.00 82 1014.5
20260506034514 59 244 27.0 39.0 0.00 0.00 0.00 82 1014.4
20260506034013 59 255 28.0 37.0 0.00 0.00 0.00 81 1014.3
20260506033512 59 247 26.0 39.0 0.00 0.00 0.00 80 1014.5
20260506033015 60 260 29.0 39.0 0.00 0.00 0.00 80 1014.4
20260506032512 60 233 26.0 39.0 0.00 0.00 0.00 80 1014.3
20260506032012 59 250 24.0 41.0 0.00 0.00 0.00 80 1014.4
20260506031514 59 252 28.0 38.0 0.00 0.00 0.00 80 1014.3
20260506031013 59 252 27.0 38.0 0.00 0.00 0.00 80 1014.2
20260506030514 59 256 27.0 35.0 0.00 0.00 0.00 80 1014.3
20260506030014 59 249 23.0 35.0 0.00 0.00 0.00 80 1014.5
20260506025511 59 255 24.0 36.0 0.00 0.00 0.00 80 1014.3
20260506025011 59 269 27.0 36.0 0.00 0.00 0.00 80 1014.4
20260506024526 59 251 24.0 35.0 0.00 0.00 0.00 80 1014.3
20260506024011 59 245 26.0 35.0 0.00 0.00 0.00 80 1014.3
20260506023511 59 272 24.0 37.0 0.00 0.00 0.00 79 1014.3
20260506023011 59 248 26.0 37.0 0.00 0.00 0.00 79 1014.3
20260506022510 59 238 26.0 34.0 0.00 0.00 0.00 80 1014.2
20260506022014 59 256 24.0 34.0 0.00 0.00 0.00 79 1014.4
20260506021511 60 257 27.0 38.0 0.00 0.00 0.00 78 1014.3
20260506021010 60 257 26.0 38.0 0.00 0.00 0.00 78 1014.4
20260506020510 60 258 22.0 35.0 0.00 0.00 0.00 78 1014.2
20260506020009 60 248 25.0 36.0 0.00 0.00 0.00 77 1014.2
20260506015513 60 257 25.0 36.0 0.00 0.00 0.00 77 1014.1
20260506015011 60 261 25.0 38.0 0.00 0.00 0.00 77 1014.2
20260506014513 60 259 26.0 38.0 0.00 0.00 0.00 77 1014.1
20260506014007 60 253 24.0 37.0 0.00 0.00 0.00 77 1014.1
20260506013507 60 246 27.0 37.0 0.00 0.00 0.00 76 1014.0
20260506013007 60 257 24.0 37.0 0.00 0.00 0.00 76 1014.0
20260506012507 61 253 27.0 37.0 0.00 0.00 0.00 76 1013.9
20260506012007 61 260 26.0 44.0 0.00 0.00 0.00 76 1013.8
20260506011508 61 252 29.0 44.0 0.00 0.00 0.00 75 1013.9
20260506011005 60 257 26.0 37.0 0.00 0.00 0.00 76 1013.7
20260506010511 60 255 29.0 39.0 0.00 0.00 0.00 76 1013.6
20260506010005 60 255 27.0 40.0 0.00 0.00 0.00 76 1013.6
20260506005505 60 260 26.0 42.0 0.00 0.00 0.00 76 1013.7
20260506005004 60 250 30.0 42.0 0.00 0.00 0.00 75 1013.6
20260506004506 60 248 30.0 42.0 0.00 0.00 0.00 76 1013.5
20260506004005 60 253 28.0 41.0 0.00 0.00 0.00 76 1013.4
20260506003504 60 263 27.0 38.0 0.00 0.00 0.00 76 1013.3
20260506003005 60 258 28.0 38.0 0.00 0.00 0.00 76 1013.1
20260506002504 60 256 28.0 39.0 0.00 0.00 0.00 76 1012.9
20260506002005 60 246 27.0 40.0 0.00 0.00 0.00 76 1012.9
20260506001505 60 252 30.0 45.0 0.00 0.00 0.00 75 1012.6
20260506001004 60 254 27.0 40.0 0.00 0.00 0.00 76 1012.6
20260506000506 60 264 28.0 40.0 0.00 0.00 0.00 76 1012.5
20260506000003 60 257 28.0 41.0 0.00 0.00 0.00 76 1012.6
20260505235504 60 256 31.0 41.0 0.00 0.00 0.00 76 1012.3
20260505235003 60 258 29.0 41.0 0.00 0.00 0.00 77 1012.3
20260505234503 60 258 25.0 41.0 0.00 0.00 0.00 77 1012.5
20260505234005 59 265 28.0 42.0 0.00 0.00 0.00 77 1012.3
20260505233503 59 250 32.0 42.0 0.00 0.00 0.00 77 1012.3
20260505233002 59 253 28.0 39.0 0.00 0.00 0.00 78 1012.4
20260505232505 59 256 28.0 39.0 0.00 0.00 0.00 78 1012.4
20260505232002 59 251 28.0 37.0 0.00 0.00 0.00 78 1012.6
20260505231504 59 257 27.0 38.0 0.00 0.00 0.00 78 1012.6
20260505231001 60 243 27.0 38.0 0.00 0.00 0.00 77 1012.5
20260505230500 59 252 26.0 36.0 0.00 0.00 0.00 77 1012.4
20260505230003 59 262 26.0 36.0 0.00 0.00 0.00 78 1012.4
20260505225604 59 245 24.0 38.0 0.00 0.00 0.00 78 1012.4
20260505225101 59 247 28.0 38.0 0.00 0.00 0.00 77 1012.4
20260505224601 59 250 29.0 38.0 0.00 0.00 0.00 77 1012.3
20260505224103 59 248 28.0 37.0 0.00 0.00 0.00 77 1012.3
20260505223603 59 236 29.0 45.0 0.00 0.00 0.00 77 1012.2
20260505223104 60 243 31.0 45.0 0.00 0.00 0.00 76 1012.3
20260505222603 60 248 29.0 41.0 0.00 0.00 0.00 76 1012.3
20260505222100 60 267 26.0 35.0 0.00 0.00 0.00 76 1012.3
20260505221603 60 256 24.0 37.0 0.00 0.00 0.00 76 1012.2
20260505221059 60 255 23.0 37.0 0.00 0.00 0.00 76 1012.0
20260505220600 60 265 25.0 38.0 0.00 0.00 0.00 76 1012.0
20260505220100 60 256 30.0 38.0 0.00 0.00 0.00 75 1012.0
20260505215558 60 253 25.0 39.0 0.00 0.00 0.00 75 1012.1
20260505215058 60 269 26.0 39.0 0.00 0.00 0.00 75 1012.2
20260505214558 60 249 23.0 34.0 0.00 0.00 0.00 75 1012.2
20260505214100 60 250 22.0 32.0 0.00 0.00 0.00 75 1012.3
20260505213558 60 249 23.0 33.0 0.00 0.00 0.00 74 1012.3
20260505213057 61 248 23.0 33.0 0.00 0.00 0.00 74 1012.3
20260505212601 61 239 19.0 26.0 0.00 0.00 0.00 74 1012.2
20260505212057 61 266 20.0 26.0 0.00 0.00 0.00 73 1012.2
20260505211557 62 247 17.0 24.0 0.00 0.00 0.00 74 1012.2
20260505211056 61 243 15.0 23.0 0.00 0.00 0.00 74 1012.1
20260505210556 62 268 15.0 25.0 0.00 0.00 0.00 74 1012.1
20260505210056 62 268 16.0 23.0 0.00 0.00 0.00 74 1012.2
20260505205556 62 243 16.0 22.0 0.00 0.00 0.00 74 1012.2
20260505205056 61 255 13.0 19.0 0.00 0.00 0.00 77 1012.1
20260505204601 60 241 11.0 16.0 0.00 0.00 0.00 78 1012.3
20260505204056 60 240 13.0 19.0 0.00 0.00 0.00 77 1012.1
20260505203555 60 232 16.0 19.0 0.00 0.00 0.00 77 1012.1
20260505203101 60 233 16.0 19.0 0.00 0.00 0.00 77 1012.1
20260505202555 60 222 14.0 18.0 0.00 0.00 0.00 77 1012.2
20260505202055 61 243 13.0 19.0 0.00 0.00 0.00 76 1012.1
20260505201555 61 229 15.0 21.0 0.00 0.00 0.00 75 1012.2
20260505201054 63 253 14.0 21.0 0.00 0.00 0.00 73 1012.1
20260505200553 62 252 15.0 21.0 0.00 0.00 0.00 74 1012.1
20260505200052 62 269 15.0 24.0 0.00 0.00 0.00 74 1012.2
20260505195551 62 242 17.0 24.0 0.00 0.00 0.00 74 1012.3
20260505195051 62 260 18.0 23.0 0.00 0.00 0.00 74 1012.3
20260505194605 62 283 13.0 21.0 0.00 0.00 0.00 74 1012.4
20260505194049 62 262 14.0 21.0 0.00 0.00 0.00 74 1012.6
20260505193551 61 245 14.0 20.0 0.00 0.00 0.00 79 1012.7
20260505193049 59 236 14.0 19.0 0.00 0.00 0.00 80 1012.8
20260505192548 59 228 15.0 21.0 0.00 0.00 0.00 80 1012.8
20260505192048 59 240 17.0 21.0 0.00 0.00 0.00 80 1012.8
20260505191602 59 228 16.0 20.0 0.00 0.00 0.00 80 1012.7
20260505191050 59 232 16.0 20.0 0.00 0.00 0.00 80 1012.7
20260505190548 59 229 17.0 20.0 0.00 0.00 0.00 81 1012.8
20260505190047 59 233 16.0 21.0 0.00 0.00 0.00 81 1012.7
20260505185546 58 250 17.0 21.0 0.00 0.00 0.00 81 1012.8
20260505185046 58 246 17.0 21.0 0.00 0.00 0.00 81 1012.8
20260505184546 58 237 16.0 19.0 0.00 0.00 0.00 82 1012.8
20260505184046 58 251 16.0 20.0 0.00 0.00 0.00 82 1012.8
20260505183546 58 251 15.0 20.0 0.00 0.00 0.00 82 1012.9
20260505183044 58 238 16.0 20.0 0.00 0.00 0.00 82 1012.8